| time (UTC) | temp C | wind direction | speed KPH | gust KPH | rain 1hr cm | rain 24hr cm | rain mn cm | humidity % | barometer mb |
| 20260506061542 | 16 | 275 | 3.2 | 6.4 | 0.00 | 0.00 | 0.00 | 43 | 1012.0 |
| 20260506044543 | 17 | 273 | 3.2 | 9.7 | 0.00 | 0.00 | 0.00 | 40 | 1010.4 |
| 20260506043040 | 18 | 269 | 3.2 | 11.3 | 0.00 | 0.00 | 0.00 | 39 | 1010.2 |
| 20260506041539 | 18 | 275 | 3.2 | 11.3 | 0.00 | 0.00 | 0.00 | 37 | 1010.0 |
| 20260506040041 | 19 | 290 | 4.8 | 14.5 | 0.00 | 0.00 | 0.00 | 35 | 1009.7 |
| 20260506034543 | 20 | 293 | 6.4 | 16.1 | 0.00 | 0.00 | 0.00 | 33 | 1009.3 |
| 20260506033043 | 20 | 281 | 4.8 | 12.9 | 0.00 | 0.00 | 0.00 | 32 | 1009.0 |
| 20260506031542 | 21 | 296 | 6.4 | 14.5 | 0.00 | 0.00 | 0.00 | 31 | 1008.8 |
| 20260506030043 | 21 | 322 | 4.8 | 12.9 | 0.00 | 0.00 | 0.00 | 31 | 1008.5 |
| 20260506024540 | 22 | 323 | 4.8 | 14.5 | 0.00 | 0.00 | 0.00 | 30 | 1008.3 |
| 20260506023048 | 23 | 304 | 6.4 | 16.1 | 0.00 | 0.00 | 0.00 | 28 | 1007.9 |
| 20260506021536 | 23 | 337 | 6.4 | 16.1 | 0.00 | 0.00 | 0.00 | 27 | 1007.6 |
| 20260506020042 | 24 | 350 | 4.8 | 17.7 | 0.00 | 0.00 | 0.00 | 26 | 1007.5 |
| 20260506014544 | 24 | 17 | 9.7 | 19.3 | 0.00 | 0.00 | 0.00 | 26 | 1007.3 |
| 20260506013039 | 25 | 355 | 9.7 | 20.9 | 0.00 | 0.00 | 0.00 | 25 | 1007.3 |
| 20260506011539 | 25 | 345 | 4.8 | 22.5 | 0.00 | 0.00 | 0.00 | 26 | 1007.1 |
| 20260506010047 | 25 | 23 | 9.7 | 20.9 | 0.00 | 0.00 | 0.00 | 25 | 1007.1 |
| 20260506004539 | 26 | 333 | 11.3 | 29.0 | 0.00 | 0.00 | 0.00 | 24 | 1007.1 |
| 20260506003042 | 25 | 342 | 9.7 | 22.5 | 0.00 | 0.00 | 0.00 | 23 | 1007.0 |
| 20260506001545 | 26 | 300 | 9.7 | 25.7 | 0.00 | 0.00 | 0.00 | 24 | 1007.1 |
| 20260506000038 | 26 | 265 | 4.8 | 24.1 | 0.00 | 0.00 | 0.00 | 24 | 1007.2 |
| 20260505234600 | 26 | 304 | 9.7 | 27.4 | 0.00 | 0.00 | 0.00 | 23 | 1007.3 |
| 20260505233039 | 26 | 355 | 6.4 | 19.3 | 0.00 | 0.00 | 0.00 | 24 | 1007.5 |
| 20260505231537 | 26 | 320 | 8.0 | 25.7 | 0.00 | 0.00 | 0.00 | 24 | 1007.3 |
| 20260505230042 | 26 | 344 | 11.3 | 27.4 | 0.00 | 0.00 | 0.00 | 24 | 1007.5 |
| 20260505224539 | 25 | 311 | 12.9 | 24.1 | 0.00 | 0.00 | 0.00 | 26 | 1007.7 |
| 20260505223041 | 25 | 324 | 9.7 | 27.4 | 0.00 | 0.00 | 0.00 | 26 | 1007.8 |
| 20260505221539 | 25 | 293 | 8.0 | 24.1 | 0.00 | 0.00 | 0.00 | 25 | 1007.9 |
| 20260505220041 | 25 | 347 | 6.4 | 20.9 | 0.00 | 0.00 | 0.00 | 27 | 1008.2 |
| 20260505214602 | 25 | 346 | 6.4 | 20.9 | 0.00 | 0.00 | 0.00 | 26 | 1008.5 |
| 20260505213056 | 25 | 290 | 4.8 | 22.5 | 0.00 | 0.00 | 0.00 | 27 | 1008.6 |
| 20260505211541 | 24 | 326 | 8.0 | 22.5 | 0.00 | 0.00 | 0.00 | 29 | 1009.0 |
| 20260505210040 | 24 | 317 | 6.4 | 19.3 | 0.00 | 0.00 | 0.00 | 30 | 1009.0 |
| 20260505204550 | 23 | 290 | 6.4 | 24.1 | 0.00 | 0.00 | 0.00 | 32 | 1009.1 |
| 20260505203049 | 23 | 285 | 6.4 | 14.5 | 0.00 | 0.00 | 0.00 | 29 | 1009.2 |
| 20260505201541 | 23 | 360 | 6.4 | 17.7 | 0.00 | 0.00 | 0.00 | 31 | 1009.2 |
| 20260505200052 | 22 | 286 | 6.4 | 19.3 | 0.00 | 0.00 | 0.00 | 32 | 1009.4 |
| 20260505194545 | 22 | 266 | 3.2 | 17.7 | 0.00 | 0.00 | 0.00 | 34 | 1009.4 |
| 20260505193037 | 22 | 300 | 4.8 | 17.7 | 0.00 | 0.00 | 0.00 | 32 | 1009.4 |
| 20260505191544 | 22 | 180 | 8.0 | 22.5 | 0.00 | 0.00 | 0.00 | 31 | 1009.8 |
| 20260505190042 | 22 | 256 | 6.4 | 17.7 | 0.00 | 0.00 | 0.00 | 31 | 1009.8 |
| 20260505184540 | 22 | 192 | 6.4 | 19.3 | 0.00 | 0.00 | 0.00 | 31 | 1010.0 |
| 20260505183039 | 21 | 199 | 6.4 | 14.5 | 0.00 | 0.00 | 0.00 | 32 | 1010.2 |
| 20260505181540 | 21 | 265 | 4.8 | 17.7 | 0.00 | 0.00 | 0.00 | 32 | 1010.4 |
| 20260505180057 | 21 | 0 | 0.0 | 9.7 | 0.00 | 0.00 | 0.00 | 33 | 1010.3 |
| 20260505174558 | 20 | 196 | 3.2 | 14.5 | 0.00 | 0.00 | 0.00 | 35 | 1010.2 |
| 20260505173045 | 20 | 175 | 6.4 | 17.7 | 0.00 | 0.00 | 0.00 | 34 | 1010.2 |
| 20260505171539 | 20 | 200 | 8.0 | 19.3 | 0.00 | 0.00 | 0.00 | 35 | 1010.2 |
| 20260505170039 | 20 | 215 | 8.0 | 14.5 | 0.00 | 0.00 | 0.00 | 35 | 1010.0 |
| 20260505164537 | 20 | 179 | 11.3 | 17.7 | 0.00 | 0.00 | 0.00 | 33 | 1009.9 |
| 20260505163042 | 20 | 112 | 4.8 | 22.5 | 0.00 | 0.00 | 0.00 | 35 | 1010.0 |
| 20260505161541 | 19 | 140 | 9.7 | 24.1 | 0.00 | 0.00 | 0.00 | 34 | 1009.9 |
| 20260505153040 | 18 | 167 | 12.9 | 24.1 | 0.00 | 0.00 | 0.00 | 36 | 1009.7 |
| 20260505151537 | 18 | 167 | 12.9 | 24.1 | 0.00 | 0.00 | 0.00 | 40 | 1009.7 |
| 20260505124542 | -17 | 0.0 | 0.0 | 0.00 | 0.00 | 0.00 | 1007.7 | ||
| 20260505123038 | -17 | 0.0 | 0.0 | 0.00 | 0.00 | 0.00 | 1007.5 | ||
| 20260505121542 | -17 | 0.0 | 0.0 | 0.00 | 0.00 | 0.00 | 1007.2 | ||
| 20260505120043 | -17 | 0.0 | 0.0 | 0.00 | 0.00 | 0.00 | 1006.8 | ||
| 20260505114548 | -17 | 0.0 | 0.0 | 0.00 | 0.00 | 0.00 | 1006.6 | ||
| 20260505113037 | -17 | 0.0 | 0.0 | 0.00 | 0.00 | 0.00 | 1006.6 | ||
| 20260505111538 | -17 | 0.0 | 0.0 | 0.00 | 0.00 | 0.00 | 1006.4 | ||
| 20260505101539 | -17 | 0.0 | 0.0 | 0.00 | 0.00 | 0.00 | 1005.5 | ||
| 20260505100038 | -17 | 0.0 | 0.0 | 0.00 | 0.00 | 0.00 | 1005.4 | ||
| 20260505094545 | -17 | 0.0 | 0.0 | 0.00 | 0.00 | 0.00 | 1005.4 | ||
| 20260505093043 | -17 | 0.0 | 0.0 | 0.00 | 0.00 | 0.00 | 1005.1 | ||
| 20260505091557 | -17 | 0.0 | 0.0 | 0.00 | 0.00 | 0.00 | 1004.9 | ||
| 20260505090045 | -17 | 0.0 | 0.0 | 0.00 | 0.00 | 0.00 | 1004.9 | ||
| 20260505084539 | -17 | 0.0 | 0.0 | 0.00 | 0.00 | 0.00 | 1005.0 | ||
| 20260505083036 | -17 | 0.0 | 0.0 | 0.00 | 0.00 | 0.00 | 1004.9 | ||
| 20260505081554 | -17 | 0.0 | 0.0 | 0.00 | 0.00 | 0.00 | 1004.7 | ||
| 20260505080040 | -17 | 0.0 | 0.0 | 0.00 | 0.00 | 0.00 | 1004.7 | ||
| 20260505074540 | -17 | 0.0 | 0.0 | 0.00 | 0.00 | 0.00 | 1004.7 | ||
| 20260505073038 | -17 | 0.0 | 0.0 | 0.00 | 0.00 | 0.00 | 1004.7 | ||
| 20260505071545 | -17 | 0.0 | 0.0 | 0.00 | 0.00 | 0.00 | 1004.6 |